Simultaneous Nadir Overpasses (SNOs) Predictions

Prediction of SNOs between AURA and NPP Satellite Orbit:

Table of predicted SNOs for the next 14.0 days since TLE Epoch: 3/4/2016
Index Date (AURA) Time (AURA) Lat,Lon (AURA) SZA (AURA ) Date (NPP) Time (NPP) Lat,Lon (NPP) SZA (NPP ) Distance(km) Time Diff (sec)
1 03/05/2016 10:35:57 79.30, -83.37 98.88 03/05/2016 10:35:06 79.29, -83.42 98.92 0.96 51
2 03/05/2016 11:25:15 -79.64, 86.66 81.65 03/05/2016 11:25:41 -79.65, 86.75 81.68 1.68 26
3 03/08/2016 02:52:24 79.37, 33.00 97.72 03/08/2016 02:51:57 79.36, 32.88 97.76 2.63 27
4 03/08/2016 03:41:43 -79.68,-157.19 82.76 03/08/2016 03:42:33 -79.68,-157.18 82.80 0.27 50
5 03/10/2016 19:08:49 79.47, 149.56 96.51 03/10/2016 19:08:46 79.46, 149.43 96.54 2.90 3
6 03/10/2016 19:58:05 -79.88, -39.74 84.13 03/10/2016 19:59:19 -79.87, -39.70 84.19 1.93 74
7 03/13/2016 10:35:53 -79.42, 97.44 84.47 03/13/2016 10:34:56 -79.42, 97.57 84.46 2.76 57
8 03/13/2016 11:25:14 79.59, -93.68 95.26 03/13/2016 11:25:35 79.59, -93.76 95.26 1.75 21
9 03/16/2016 02:52:21 -79.42,-146.66 85.55 03/16/2016 02:51:49 -79.41,-146.71 85.52 0.93 32
10 03/16/2016 03:41:39 79.70, 23.02 94.02 03/16/2016 03:42:24 79.71, 23.06 93.97 0.87 45
11 03/18/2016 19:08:44 -79.59, -29.53 86.89 03/18/2016 19:08:36 -79.60, -29.38 86.91 3.14 8




NCC Satellite Simultaneous Nadir Overpasses (SNOs) Prediction Service
